Stündliche Wetter Wargowo

Heute, 22 Oktober, Donnerstag

Zeit Temperatur Niederschläge Wind Luftdruck Luftfeuchtigkeit
00:00 +10°C° 0 mm 5 m/S 750 mmHg 69%
01:00 +10°C° 0 mm 5 m/S 750 mmHg 67%
02:00 +11°C° 0 mm 6 m/S 749 mmHg 67%
03:00 +11°C° 0 mm 6 m/S 749 mmHg 67%
04:00 +11°C° 0 mm 6 m/S 749 mmHg 67%
05:00 +13°C° 0 mm 6 m/S 750 mmHg 68%
06:00 +13°C° 0 mm 6 m/S 750 mmHg 69%
07:00 +12°C° 0 mm 7 m/S 751 mmHg 69%
08:00 +14°C° 0 mm 7 m/S 751 mmHg 68%
09:00 +15°C° 0 mm 7 m/S 752 mmHg 67%
10:00 +17°C° 0 mm 7 m/S 752 mmHg 66%
11:00 +17°C° 0 mm 7 m/S 752 mmHg 65%
12:00 +19°C° 0 mm 6 m/S 752 mmHg 63%
13:00 +19°C° 0 mm 6 m/S 752 mmHg 62%
14:00 +19°C° 0 mm 5 m/S 752 mmHg 65%
15:00 +17°C° 0 mm 5 m/S 752 mmHg 68%
16:00 +17°C° 0 mm 4 m/S 752 mmHg 72%
17:00 +17°C° 0 mm 4 m/S 752 mmHg 74%
18:00 +15°C° 0 mm 4 m/S 752 mmHg 76%
19:00 +14°C° 0 mm 4 m/S 752 mmHg 79%
20:00 +14°C° 0 mm 4 m/S 752 mmHg 79%
21:00 +14°C° 0 mm 4 m/S 752 mmHg 79%
22:00 +13°C° 0 mm 4 m/S 752 mmHg 79%
23:00 +14°C° 0 mm 4 m/S 752 mmHg 79%

Morgen, 23 Oktober, Freitag

Zeit Temperatur Niederschläge Wind Luftdruck Luftfeuchtigkeit
00:00 +14°C° 0 mm 5 m/S 752 mmHg 78%
01:00 +14°C° 0 mm 5 m/S 752 mmHg 78%
02:00 +14°C° 0.1 mm 5 m/S 752 mmHg 80%
03:00 +14°C° 0.1 mm 5 m/S 751 mmHg 82%
04:00 +14°C° 0.1 mm 5 m/S 751 mmHg 84%
05:00 +14°C° 0 mm 4 m/S 751 mmHg 86%
06:00 +13°C° 0 mm 4 m/S 751 mmHg 89%
07:00 +13°C° 0 mm 4 m/S 751 mmHg 91%
08:00 +14°C° 0 mm 4 m/S 751 mmHg 87%
09:00 +15°C° 0 mm 4 m/S 751 mmHg 82%
10:00 +16°C° 0 mm 5 m/S 751 mmHg 78%
11:00 +17°C° 0 mm 4 m/S 751 mmHg 76%
12:00 +18°C° 0 mm 4 m/S 751 mmHg 74%
13:00 +18°C° 0 mm 3 m/S 751 mmHg 72%
14:00 +18°C° 0 mm 3 m/S 751 mmHg 75%
15:00 +17°C° 0 mm 2 m/S 750 mmHg 78%
16:00 +16°C° 0 mm 1 m/S 750 mmHg 81%
17:00 +16°C° 0.7 mm 2 m/S 750 mmHg 85%
18:00 +15°C° 0.7 mm 2 m/S 750 mmHg 89%
19:00 +15°C° 0.7 mm 2 m/S 750 mmHg 94%
20:00 +14°C° 1.6 mm 2 m/S 750 mmHg 95%
21:00 +14°C° 1.6 mm 2 m/S 750 mmHg 96%
22:00 +14°C° 1.6 mm 2 m/S 750 mmHg 97%
23:00 +14°C° 0.9 mm 2 m/S 750 mmHg 97%

übermorgen, 24 Oktober, Samstag

Zeit Temperatur Niederschläge Wind Luftdruck Luftfeuchtigkeit
00:00 +14°C° 0.9 mm 2 m/S 750 mmHg 97%
01:00 +14°C° 0.9 mm 2 m/S 750 mmHg 98%
02:00 +14°C° 0.3 mm 2 m/S 750 mmHg 96%
03:00 +14°C° 0.3 mm 2 m/S 750 mmHg 95%
04:00 +13°C° 0.3 mm 3 m/S 749 mmHg 94%
05:00 +13°C° 0.3 mm 3 m/S 750 mmHg 93%
06:00 +13°C° 0.3 mm 3 m/S 750 mmHg 92%
07:00 +13°C° 0.3 mm 3 m/S 750 mmHg 92%
08:00 +13°C° 0 mm 4 m/S 751 mmHg 87%
09:00 +14°C° 0 mm 5 m/S 751 mmHg 82%
10:00 +14°C° 0 mm 6 m/S 752 mmHg 77%
11:00 +14°C° 0 mm 6 m/S 752 mmHg 76%
12:00 +14°C° 0 mm 6 m/S 752 mmHg 75%
13:00 +14°C° 0 mm 6 m/S 753 mmHg 74%
14:00 +14°C° 0 mm 5 m/S 753 mmHg 74%
15:00 +13°C° 0 mm 4 m/S 753 mmHg 75%
16:00 +13°C° 0 mm 3 m/S 753 mmHg 76%
17:00 +12°C° 0 mm 3 m/S 753 mmHg 79%
18:00 +13°C° 0 mm 2 m/S 754 mmHg 81%
19:00 +12°C° 0 mm 2 m/S 754 mmHg 84%
20:00 +12°C° 0 mm 2 m/S 754 mmHg 84%
21:00 +12°C° 0 mm 3 m/S 754 mmHg 84%
22:00 +12°C° 0 mm 3 m/S 754 mmHg 84%
23:00 +12°C° 0 mm 3 m/S 754 mmHg 83%

, 25 Oktober, Sonntag

Zeit Temperatur Niederschläge Wind Luftdruck Luftfeuchtigkeit
00:00 +13°C° 0 mm 2 m/S 754 mmHg 83%
01:00 +13°C° 0 mm 2 m/S 754 mmHg 82%
02:00 +13°C° 0 mm 2 m/S 754 mmHg 83%
03:00 +11°C° 0 mm 3 m/S 754 mmHg 84%
04:00 +11°C° 0 mm 3 m/S 754 mmHg 85%
05:00 +10°C° 0 mm 3 m/S 754 mmHg 87%
06:00 +10°C° 0 mm 3 m/S 754 mmHg 89%
07:00 +9°C° 0 mm 3 m/S 754 mmHg 90%
08:00 +11°C° 0 mm 3 m/S 754 mmHg 84%
09:00 +12°C° 0 mm 4 m/S 754 mmHg 78%
10:00 +14°C° 0 mm 4 m/S 754 mmHg 72%
11:00 +15°C° 0 mm 4 m/S 754 mmHg 69%
12:00 +15°C° 0 mm 4 m/S 753 mmHg 65%
13:00 +17°C° 0 mm 4 m/S 753 mmHg 62%
14:00 +17°C° 0 mm 4 m/S 753 mmHg 65%
15:00 +16°C° 0 mm 3 m/S 752 mmHg 68%
16:00 +14°C° 0 mm 3 m/S 752 mmHg 71%
17:00 +14°C° 0 mm 3 m/S 752 mmHg 75%
18:00 +13°C° 0 mm 3 m/S 752 mmHg 78%
19:00 +12°C° 0 mm 4 m/S 752 mmHg 82%
20:00 +12°C° 0 mm 4 m/S 752 mmHg 83%
21:00 +11°C° 0 mm 4 m/S 752 mmHg 83%
22:00 +11°C° 0 mm 4 m/S 752 mmHg 84%
23:00 +10°C° 0 mm 4 m/S 751 mmHg 85%

25 Oktober, Sonntag

Zeit Temperatur Niederschläge Wind Luftdruck Luftfeuchtigkeit
00:00 +13°C° 0 mm 2 m/S 754 mmHg 83%
01:00 +13°C° 0 mm 2 m/S 754 mmHg 82%
02:00 +13°C° 0 mm 2 m/S 754 mmHg 83%
03:00 +11°C° 0 mm 3 m/S 754 mmHg 84%
04:00 +11°C° 0 mm 3 m/S 754 mmHg 85%
05:00 +10°C° 0 mm 3 m/S 754 mmHg 87%
06:00 +10°C° 0 mm 3 m/S 754 mmHg 89%
07:00 +9°C° 0 mm 3 m/S 754 mmHg 90%
08:00 +11°C° 0 mm 3 m/S 754 mmHg 84%
09:00 +12°C° 0 mm 4 m/S 754 mmHg 78%
10:00 +14°C° 0 mm 4 m/S 754 mmHg 72%
11:00 +15°C° 0 mm 4 m/S 754 mmHg 69%
12:00 +15°C° 0 mm 4 m/S 753 mmHg 65%
13:00 +17°C° 0 mm 4 m/S 753 mmHg 62%
14:00 +17°C° 0 mm 4 m/S 753 mmHg 65%
15:00 +16°C° 0 mm 3 m/S 752 mmHg 68%
16:00 +14°C° 0 mm 3 m/S 752 mmHg 71%
17:00 +14°C° 0 mm 3 m/S 752 mmHg 75%
18:00 +13°C° 0 mm 3 m/S 752 mmHg 78%
19:00 +12°C° 0 mm 4 m/S 752 mmHg 82%
20:00 +12°C° 0 mm 4 m/S 752 mmHg 83%
21:00 +11°C° 0 mm 4 m/S 752 mmHg 83%
22:00 +11°C° 0 mm 4 m/S 752 mmHg 84%
23:00 +10°C° 0 mm 4 m/S 751 mmHg 85%

26 Oktober, Montag

Zeit Temperatur Niederschläge Wind Luftdruck Luftfeuchtigkeit
00:00 +10°C° 0 mm 4 m/S 751 mmHg 87%
01:00 +10°C° 0 mm 4 m/S 751 mmHg 88%
02:00 +10°C° 0 mm 4 m/S 750 mmHg 89%
03:00 +9°C° 0 mm 3 m/S 750 mmHg 90%
04:00 +9°C° 0 mm 3 m/S 750 mmHg 91%
05:00 +9°C° 0 mm 3 m/S 750 mmHg 91%
06:00 +9°C° 0 mm 3 m/S 749 mmHg 91%
07:00 +8°C° 0 mm 4 m/S 749 mmHg 91%
08:00 +10°C° 0 mm 4 m/S 749 mmHg 84%
09:00 +12°C° 0 mm 4 m/S 749 mmHg 78%
10:00 +13°C° 0 mm 5 m/S 749 mmHg 71%
11:00 +14°C° 0 mm 5 m/S 748 mmHg 68%
12:00 +15°C° 0 mm 4 m/S 748 mmHg 66%
13:00 +17°C° 0 mm 4 m/S 748 mmHg 63%
14:00 +15°C° 0 mm 4 m/S 747 mmHg 66%
15:00 +14°C° 0 mm 4 m/S 747 mmHg 70%
16:00 +14°C° 0 mm 3 m/S 746 mmHg 73%
17:00 +13°C° 0 mm 3 m/S 746 mmHg 75%
18:00 +12°C° 0 mm 3 m/S 746 mmHg 78%
19:00 +12°C° 0 mm 3 m/S 746 mmHg 80%
20:00 +12°C° 0 mm 3 m/S 746 mmHg 80%
21:00 +12°C° 0 mm 3 m/S 746 mmHg 79%
22:00 +12°C° 0 mm 3 m/S 746 mmHg 79%
23:00 +12°C° 0 mm 3 m/S 746 mmHg 81%

27 Oktober, Dienstag

Zeit Temperatur Niederschläge Wind Luftdruck Luftfeuchtigkeit
00:00 +12°C° 0 mm 3 m/S 746 mmHg 82%
01:00 +11°C° 0 mm 3 m/S 746 mmHg 84%
02:00 +11°C° 0 mm 3 m/S 746 mmHg 85%
03:00 +11°C° 0 mm 3 m/S 746 mmHg 87%
04:00 +10°C° 0 mm 3 m/S 746 mmHg 88%
05:00 +10°C° 0 mm 3 m/S 746 mmHg 90%
06:00 +10°C° 0 mm 2 m/S 747 mmHg 92%
07:00 +9°C° 0 mm 2 m/S 747 mmHg 94%
08:00 +11°C° 0 mm 3 m/S 747 mmHg 88%
09:00 +12°C° 0 mm 3 m/S 747 mmHg 82%
10:00 +13°C° 0 mm 3 m/S 748 mmHg 76%
11:00 +14°C° 0 mm 3 m/S 748 mmHg 73%
12:00 +14°C° 0 mm 3 m/S 748 mmHg 69%
13:00 +15°C° 0 mm 4 m/S 749 mmHg 66%
14:00 +14°C° 0 mm 3 m/S 749 mmHg 68%
15:00 +15°C° 0 mm 2 m/S 749 mmHg 71%
16:00 +14°C° 0 mm 2 m/S 749 mmHg 74%
17:00 +13°C° 0 mm 2 m/S 750 mmHg 77%
18:00 +13°C° 0 mm 2 m/S 750 mmHg 80%
19:00 +12°C° 0 mm 1 m/S 750 mmHg 84%
20:00 +12°C° 0 mm 1 m/S 751 mmHg 84%
21:00 +12°C° 0 mm 1 m/S 751 mmHg 84%
22:00 +12°C° 0 mm 1 m/S 751 mmHg 84%
23:00 +12°C° 0.1 mm 1 m/S 751 mmHg 86%
Mehr zeigen

Wir brauchen deine Erlaubnis

Meteoprog und unser Service Anbieter werden persönliche Daten aufbewahren, so wie Cookies, Geräte Bezeichnung oder ähnliche Technologien von deinem Gerät und Prozess, so wie Persönliche Daten Inhalte und Werbungen, genauso wie social Media und den Verkehr zu analysieren.

  • Aufbewahrung und/oder Zugang zu deiner Geräte Informationen.

    Cookies, Geräte Bezeichnung oder andere Informationen, können aufbewahrt oder Zugang zu deinem Gerät erhalten, für den Grund, der oben angegeben wird.

  • Personalisierte Werbung und Inhalte, Messungen, Einblick in das Publikum und Produkt Entwicklung.

    Werbungen und Inhalte können personalisiert werden, basierend auf ein Profil. Mehr Daten können besser personalisierte Werbungen und Inhalte hinzufügen. Werbung und Inhalte können gezeigt und gemessen werden. Einblicke über das Publikum, welche die Werbung gesehen haben und den Inhalt, können abgeleitet werden. So wie Daten können genutzt werden, um es zu verbessern oder die Benutzer Erfahrung zu verbessern das System und die Software.

Wenn du “Ich stimme zu” klickst, erlaubst du uns, die Cookies zu benutzen die Geräte Bezeichnung, den Web oder ähnliche Technologien zu benutzen. Deine Settings, können in deinem Gerät bei deinem Browser geändert werden.

Für den bestimmten Zweck, berechtigten Interessen beruhen darauf, mehr als auf den Inhalt. Du kannst mehr darüber in unseren Privaten und Cookie Politik lesen.